STARLINK-30099, 56304

Orbit data source: Space-Track

STARLINK-30099, 56304 is a payload satellite owned by SpaceX/Seattle (US) in LEO that was launched on Wed, 19 Apr 2023 UTC via an FALCON 9 launch vehicle from the Air Force Eastern Test Range (AFETR). Payload-class satellites include a variety of spacecraft equipped with specific instruments for various scientific and technological missions. These include communications satellites like Starlink; space stations such as the ISS; scientific satellites like the Hubble; Earth observation satellites from companies like Planet Labs, Umbra, and HawkEye 360; GPS; miniature CubeSats for education and research; and military/defense satellites.

Loading next visibility...
Identifier
56304, 2023-056U
Orbit
LEO
Country
Flag of USUS
Related business
Manufacturer
SpaceX/Seattle
Mission
Operational Commercial Communications
Bus & Motor
STARLINK V2M, Unknown motor
Mass
730 kg wet, ~700 kg dry
Launch date (UTC)
2023-04-19 (3 years ago)
Launch vehicle
FALCON 9
Launch site
Air Force Eastern Test Range (AFETR)
Object type
Payload
Rocket body
Debris
Shape & HBR
Box + 2 Pan, 17.7 m
Radar Cross Section
33.884 m², Large (>1 m²)

Expand to show TLE details & history
Last TLE update: 1 day ago

TLE from 1 day ago
0 STARLINK-30099
1 56304U 23056U   25348.58627753 -.00002997  00000-0 -20688-3 0  9995
2 56304  43.0025 312.4915 0001439 265.7857  94.2821 15.02534749147284
Epoch: 2025-12-14T14:04Z
TLE epoch observation values (Epoch: 2025-12-14T14:04:14.378Z)
Latitude
-0.00002°
Longitude
17.9345°
Altitude
558.936 km
Speed
7.584 km/s
True Right ascension
20h 49m 57s
True Declination
0° 00' 00"
Sunlit
Object was in daylight at epoch
Visualization orbit readout
Latitude
Unknown
Longitude
Unknown
Altitude
Unknown
Speed
Unknown
Apparent Right ascension
Unknown
Apparent Declination
Unknown
Sunlit
N/A
Visualization observer readout
Local Sidereal Time
13:23:48
Azimuth
Unknown
Elevation
Unknown
Doppler factor
Unknown
Orbital elements
Apogee altitude
562.005 km
Perigee altitude
560.008 km
Semi-major axis
6,939.144 km
Eccentricity
0.00014
Inclination
43.0025°
RAAN
312.4915°
Arg. of periapsis
265.7857°
True anomaly
94.29854°
Mean anomaly
94.2821°
Eccentric anomaly
94.29032°
Mean motion
3.75478 °/min
Orbital period
95.88 mins
BSTAR
-0.00020688
Loading maneuver chart data...
Computing Atmospheric mass density...
Loading historical data...
Loading historical data...
Loading historical data...
Loading historical data...
Loading historical data...
Loading historical data...
Loading historical data...

Documentation

Showing up to 5 results
|